Tracking 29799 objects as of 11-Oct-2024
HD Live streaming from Space Station
objects crossing your sky now

OBJECT H

Track OBJECT H now!
10-day predictions


NORAD ID: 47939
Int'l Code: 2021-022H
Perigee: 385.6 km
Apogee: 401.2 km
Inclination: 97.4 °
Period: 92.3 minutes
Semi major axis: 6764 km
RCS: Unknown
Launch date: March 22, 2021
Source: (TBD)
Launch site: TYURATAM MISSILE AND SPACE COMPLEX (TTMTR)

Note: This is a ROCKET BODY
Your satellite tracking list
Your tracking list is empty




NASA's NSSDC Master Catalog

Two Line Element Set (TLE):
1 47939U 21022H   24285.16986713  .00601401  00000-0  67887-2 0  9991
2 47939  97.4429 192.3495 0011562  73.5794 286.6733 15.60477363196881
Source of the keplerian elements: AFSPC